Location: Hope
(40.9110°N, 74.9680°W)
Time: 00:47:51
(UTC-04:00)

Envisat - Pass Details

Date: 31 January 2019
Orbit: 764 x 766 km, 98.1° (Epoch: 23 October)

Event Time Altitude Azimuth Distance (km) Brightness Sun altitude
Rises 19:31:23 0° 192° (SSW) 3,218 6.4 -25.8°
Reaches altitude 10° 19:33:56 10° 203° (SSW) 2,296 5.7 -26.3°
Maximum altitude 19:38:22 30° 264° (W) 1,339 4.8 -27.1°
Drops below altitude 10° 19:42:50 10° 326° (NW) 2,310 5.9 -28.0°
Sets 19:45:25 0° 337° (NNW) 3,241 6.5 -28.4°
